$B4QB,G/7nF|(B,2013$BG/(B10$B7n(B17$BF|(B,,,
$B4QB,<T(B,$B=)F#!!E/(B,,,
$B4QB,COE@(B,$B%^%9%+%C%H2#(B,34''41'24.98,133''55'14.98,
$B29EY7WHV9f(B,18,1,,
$B;~9o(B,$B5$29(B,$BIw8~(B,$BIwB.(B,$BHw9M(B
15:00:00,19.8,,,$B1F(B
15:01:00,19.8,,,
15:02:00,19.4,$BFn(B,3,$BIw6/$$(B
15:03:00,19.5,$BFn(B,3,$BIw6/$$(B
15:04:00,19.6,$BFn(B,1,
15:05:00,18.7,$BFn(B,1,
15:06:00,18.5,,,
15:07:00,18.6,,,
15:08:00,18.8,,,
15:09:00,19.3,,,
15:10:00,19.4,,,
15:11:00,19.3,,,
15:12:00,19.1,$BKL@>(B,3,$BIw6/$$(B
15:13:00,19,$BFn(B,1,
15:14:00,18.8,$BKL@>(B,3,
15:15:00,18.8,$B@>(B,3,
15:16:00,18.7,,,
15:17:00,18.7,,,
15:18:00,18.8,$BKL(B,1,
15:19:00,18.8,$BKL@>(B,1,
15:20:00,18.8,,,
15:21:00,18.8,,,
15:22:00,19,$BFn(B,1,
15:23:00,19.1,$BFn(B,1,
15:24:00,18.8,$B@>(B,1,
15:25:00,18.8,$BFn(B,1,
15:26:00,18.8,$BKL(B,2,
15:27:00,18.8,,,
15:28:00,19,$BFnEl(B,3,
15:29:00,18.9,$BKL@>(B,1,
15:30:00,18.9,$BFn(B,3,
15:31:00,18.8,$BFn(B,1,
15:32:00,18.8,$BKL(B,1,
15:33:00,18.8,,,
15:34:00,18.8,$BKL(B,3,
15:35:00,18.9,$BKL@>(B,2,
15:36:00,19,$BFn(B,1,
15:37:00,18.8,$BKL!!(B,1,
15:38:00,18.8,$BFn(B,1,
15:39:00,18.7,$BFn(B,1,
15:40:00,18.8,$BFn(B,3,
15:41:00,18.8,$BFn(B,1,
15:42:00,18.7,$BFn(B,2,
15:43:00,18.8,$BKL!!(B,1,
15:44:00,18.7,$BFn@>(B,1,
15:45:00,18.6,$BFn(B,1,
15:46:00,18.7,,,
15:47:00,18.6,$BFn(B,1,
15:48:00,18.6,$BFn(B,1,
15:49:00,18.7,$BFn(B,1,
15:50:00,18.6,,,
15:51:00,18.7,$BFn(B,1,
15:52:00,18.6,$BKL!!(B,1,$B<VDL$k(B
15:53:00,18.8,$BFn(B,1,
15:54:00,18.7,,,
15:55:00,18.8,$BFn(B,3,
15:56:00,18.8,$BFn(B,1,
15:57:00,18.8,$BFn(B,1,
15:58:00,18.7,$BFn(B,1,
15:59:00,18.5,$BFn(B,3,
16:00:00,18.3,$BFn(B,1,
16:01:00,18.3,$BFn(B,3,
16:02:00,18.2,$BFn(B,1,
16:03:00,18.2,$BFn(B,3,
16:04:00,18.1,$BFn(B,3,
16:05:00,18.1,,,
16:06:00,18.1,,,
16:07:00,18.1,$BFn(B,2,
16:08:00,18.1,$BFn(B,2,
16:09:00,18.1,$BFn(B,1,
16:10:00,18.1,$BFn(B,3,
16:11:00,18.2,$BFn(B,1,
16:12:00,18.1,$BFn(B,1,
16:13:00,18.1,$BFn(B,3,
16:14:00,18.1,,,
16:15:00,18.1,$BFn(B,1,
16:16:00,18.1,$BFn(B,3,
16:17:00,18.2,$BFn(B,1,
16:18:00,18.1,$BFn(B,2,
16:19:00,18,,,
16:20:00,18,,,
16:21:00,18,$BFn(B,3,
16:22:00,17.9,$BFn(B,1,
16:23:00,17.9,$BFn(B,1,
16:24:00,17.9,$BFn(B,3,
16:25:00,17.9,,,
16:26:00,17.8,$BFn(B,1,
16:27:00,17.8,$BFn(B,3,
16:28:00,17.8,$BFn(B,3,
16:29:00,17.8,$BFn(B,3,
16:30:00,17.8,$BFn(B,1,
16:31:00,17.8,$BFn(B,1,
16:32:00,17.8,$BFn(B,3,
16:33:00,17.7,,,
16:34:00,17.7,$BFn(B,1,
16:35:00,17.7,$BFn(B,3,
16:36:00,17.7,$BFnEl(B,3,
16:37:00,17.7,$BFnEl(B,3,
16:38:00,17.7,$BFnEl(B,3,
16:39:00,17.7,$BFnEl(B,1,
16:40:00,17.6,$BFnEl(B,3,
16:41:00,17.7,,,
16:42:00,17.7,$BFnEl(B,1,
16:43:00,17.7,$BFnEl(B,1,
16:44:00,17.8,$BFnEl(B,1,
16:45:00,17.7,$BFnEl(B,3,
16:46:00,17.6,$BFnEl(B,1,
16:47:00,17.6,$BFnEl(B,1,
16:48:00,17.6,$BFn(B,1,
16:49:00,17.6,$BFn(B,3,
16:50:00,17.6,$BFn(B,1,
16:51:00,17.5,$BKL(B,2,$BIw8~JQ2=(B
16:52:00,17.4,$BFn(B,1,
16:53:00,17.4,$BFn(B,3,
16:54:00,17.4,$BFn(B,3,
16:55:00,17.4,$BFn(B,2,
16:56:00,17.4,,,
16:57:00,17.4,$BFn(B,1,
16:58:00,17.4,$BFn(B,3,
16:59:00,17.5,$BFn(B,3,
17:00:00,17.4,$BFn(B,1,
